Location: Darlington Observatory
(36.4817°N, 105.8156°W)
Time: 15:18:21
(UTC-06:00)

MOS 1 - Visible Passes

Search period start: 02 September 2014 00:00
Search period end: 12 September 2014 00:00
Orbit: 880 x 891 km, 99.2° (Epoch: 02 September)

Date Brightness Start Highest point End Pass type
(mag) Time Alt. Az. Time Alt. Az. Time Alt. Az.
02 Sep 6.2 04:55:33 10° NE 05:00:24 29° E 05:05:13 10° SSE visible
03 Sep 6.2 04:54:02 10° NE 04:58:50 28° E 05:03:35 10° SSE visible
04 Sep 6.3 04:52:32 10° NE 04:57:16 27° E 05:01:58 10° SSE visible
05 Sep 6.3 04:51:03 10° NE 04:55:43 26° E 05:00:20 10° SSE visible
06 Sep 6.4 04:49:33 10° NE 04:54:09 25° E 04:58:42 10° SSE visible
07 Sep 6.4 04:48:04 10° NE 04:52:35 24° E 04:57:04 10° SSE visible
08 Sep 6.5 04:46:34 10° NE 04:51:01 23° E 04:55:25 10° SSE visible
09 Sep 6.5 04:45:05 10° NE 04:49:27 23° E 04:53:47 10° SE visible
10 Sep 6.6 04:43:36 10° NE 04:47:53 22° E 04:52:08 10° SE visible
11 Sep 6.6 04:42:08 10° NE 04:46:19 21° E 04:50:28 10° SE visible
